This is the latest recevied weather packets stored in our database for station/object N4AN. If no packets are shown the sender has not sent any weather packets the latest 10 day(s).
| Time | Temp. | Humidity | Pressure | Rain* | Wind** | Luminosity | Snow |
|---|---|---|---|---|---|---|---|
| 1787943134 | 36.11° C | 62% | 1010.8 hPa | 0 mm | - | - | - |
| 1787942834 | 36.11° C | 61% | 1011 hPa | 0 mm | - | - | - |
| 1787942534 | 36.11° C | 61% | 1011 hPa | 0 mm | - | - | - |
| 1787942231 | 36.11° C | 60% | 1011.1 hPa | 0 mm | - | - | - |
| 1787941931 | 36.11° C | 61% | 1011.3 hPa | 0 mm | - | - | - |
| 1787941631 | 36.67° C | 60% | 1011.4 hPa | 0 mm | - | - | - |
| 1787941030 | 36.67° C | 60% | 1011.6 hPa | 0 mm | - | - | - |
| 1787940730 | 36.11° C | 61% | 1011.5 hPa | 0 mm | - | - | - |
| 1787940430 | 36.11° C | 62% | 1011.7 hPa | 0 mm | - | - | - |
| 1787940130 | 35.56° C | 62% | 1011.8 hPa | 0 mm | - | - | - |
| 1787939829 | 35.56° C | 63% | 1011.8 hPa | 0 mm | - | - | - |
| 1787939529 | 35.56° C | 64% | 1011.9 hPa | 0 mm | - | - | - |
| 1787939313 | 35.56° C | 63% | 1012 hPa | 0 mm | - | - | - |
| 1787939313 | 35.56° C | 64% | 1012 hPa | 0 mm | - | - | - |
| 1787938929 | 35.56° C | 64% | 1012 hPa | 0 mm | - | - | - |
| 1787938628 | 35° C | 66% | 1012.1 hPa | 0 mm | - | - | - |
| 1787938329 | 33.89° C | 68% | 1012.1 hPa | 0 mm | - | - | - |
| 1787938023 | 33.89° C | 68% | 1012.2 hPa | 0 mm | - | - | - |
| 1787937722 | 34.44° C | 66% | 1012.3 hPa | 0 mm | - | - | - |
| 1787937336 | 34.44° C | 65% | 1012.4 hPa | 0 mm | - | - | - |
| 1787937033 | 35° C | 66% | 1012.3 hPa | 0 mm | - | - | - |
| 1787936733 | 34.44° C | 66% | 1012.4 hPa | 0 mm | - | - | - |
| 1787936428 | 34.44° C | 66% | 1012.5 hPa | 0 mm | - | - | - |
| 1787936122 | 34.44° C | 66% | 1012.6 hPa | 0 mm | - | - | - |
| 1787935821 | 34.44° C | 65% | 1012.4 hPa | 0 mm | - | - | - |
* Rain latest hour (hover to see other rain measurements)
** Current wind speed in m/s (hover to see current wind gust speed)